Flag for Portugal Weather past 2 weeks in Porto, Portugal

Now
46 °F

Clear.


Feels Like: 45 °F
Forecast: 46 / 60 °F
Wind: 3 mph from East

Location: Porto / Pedras Rubras

Current Time: Dec 21, 2014 at 12:25:49 AM

Latest Report: Dec 20, 2014 at 11:30 PM


Visibility: 5 mi

Pressure: 30.51 "Hg

Humidity: 100%

Dew point: 46 °F

Location of PortoLocation

Historic Weather in Porto — Graph

°F

Porto temperature yesterday

Maximum temperature yesterday: 57 °F (at 12:00 PM)
Minimum temperature yesterday: 37 °F (at 3:30 AM)
Average temperature yesterday: 48 °F

Past Weeks' High & Low Weather Summary

 TemperatureHumidityPressure
High59 °F (Dec 17, 12:30 PM)100% (Dec 8, 3:30 AM)30.57 "Hg (Dec 8, 3:30 AM)
Low36 °F (Dec 8, 6:30 AM)48% (Dec 6, 2:00 PM)29.71 "Hg (Dec 13, 2:00 AM)
Average49 °F88%30.32 "Hg
* Reported Dec 5 11:00 PM — Dec 20 11:00 PM, Porto, Weather by CustomWeather, © 2014

Note: Actual official high and low records may vary slightly from our data, if they occured in-between our weather recording intervals... More about our weather records

Advertising

Porto weather history for previous 24 hours

 ConditionsComfort  
Time TempWeatherWind HumidityBarometerVisibility
11:00 PM
Dec 20
46 °FClear.5 mph93%30.51 "Hg5 mi
10:30 PM46 °FPassing clouds.3 mph93%30.54 "Hg6 mi
10:00 PM46 °FPassing clouds.3 mph93%30.54 "Hg6 mi
9:30 PM48 °FPassing clouds.7 mph100%30.54 "Hg6 mi
9:00 PM48 °FPassing clouds.3 mph100%30.54 "Hg5 mi
8:30 PM50 °FPassing clouds.2 mph100%30.54 "Hg4 mi
8:00 PM54 °FFog.5 mph94%30.54 "Hg1 mi
7:47 PM54 °FFog.5 mph94%30.54 "Hg1 mi
7:30 PM54 °FFog.5 mph100%30.51 "Hg2 mi
7:00 PM54 °FPassing clouds.5 mph100%30.51 "Hg4 mi
6:30 PM55 °FPassing clouds.6 mph94%30.51 "HgN/A
6:00 PM55 °FPassing clouds.8 mph94%30.51 "Hg6 mi
5:00 PM54 °FScattered clouds.6 mph94%30.51 "Hg4 mi
4:30 PM55 °FScattered clouds.5 mph88%30.51 "Hg5 mi
4:00 PM55 °FScattered clouds.7 mph88%30.51 "Hg4 mi
3:30 PM57 °FPassing clouds.5 mph77%30.51 "Hg5 mi
3:00 PM57 °FPassing clouds.5 mph77%30.51 "Hg5 mi
2:30 PM57 °FClear.5 mph77%30.51 "Hg5 mi
2:00 PM57 °FClear.3 mph77%30.51 "Hg5 mi
1:30 PM57 °FClear.5 mph77%30.54 "Hg5 mi
1:00 PM57 °FSunny.2 mph72%30.54 "Hg10 mi
12:00 PM57 °FSunny.1 mph67%30.57 "Hg10 mi
11:30 AM55 °FPassing clouds.5 mph72%30.57 "HgN/A
11:00 AM52 °FPassing clouds.6 mph77%30.57 "HgN/A
10:30 AM52 °FPassing clouds.5 mph77%30.57 "HgN/A
10:00 AM48 °FPassing clouds.5 mph82%30.57 "HgN/A
9:30 AM46 °FSunny.8 mph87%30.57 "Hg10 mi
9:00 AM45 °FPassing clouds.7 mph87%30.54 "HgN/A
8:30 AM43 °FPassing clouds.3 mph93%30.54 "HgN/A
8:00 AM41 °FPassing clouds.5 mph93%30.54 "HgN/A
7:30 AM39 °FPassing clouds.5 mph93%30.54 "HgN/A
7:00 AM39 °FPassing clouds.5 mph100%30.54 "HgN/A
6:30 AM41 °FPassing clouds.5 mph93%30.54 "HgN/A
6:00 AM39 °FPassing clouds.3 mph100%30.51 "HgN/A
5:30 AM37 °FClear.2 mph93%30.51 "Hg10 mi
5:00 AM39 °FClear.2 mph100%30.54 "Hg10 mi
4:30 AM37 °FClear.2 mph100%30.54 "Hg10 mi
4:00 AM39 °FPassing clouds.3 mph100%30.54 "HgN/A
3:30 AM37 °FClear.5 mph93%30.54 "Hg4 mi
3:00 AM39 °FPassing clouds.3 mph93%30.54 "HgN/A
2:30 AM39 °FPassing clouds.5 mph93%30.54 "HgN/A
2:00 AM39 °FClear.5 mph93%30.54 "Hg10 mi
1:30 AM39 °FPassing clouds.3 mph100%30.54 "HgN/A
1:00 AM41 °FPassing clouds.3 mph93%30.54 "HgN/A
12:30 AM41 °FClear.6 mph93%30.54 "Hg10 mi
12:00 AM41 °FClear.6 mph93%30.54 "Hg10 mi
Weather by CustomWeather, © 2014

See weather overviewHow to use our weather pages